User: anonymous   Login
Location: Unspecified
(0.0000°N, 0.0000°E)
Time: 09:16:05
(UTC+00:00)
Language:

Nadezhda 2 - Orbit

View from above orbital plane
View from above orbital plane
View from above satellite
View from above satellite

Ground track
Ground track

The orbit data is extracted from the following two-line orbital elements,

1 20508U 90017A   17086.90679824 +.00000022 +00000-0 +66514-5 0  9990
2 20508 082.9573 041.7794 0045526 107.7777 305.5993 13.74241776357934
Epoch (UTC): 27 March 2017 21:45:47
Eccentricity: 0.0045526
inclination: 82.9573°
perigee height: 951 km
apogee height: 1018 km
right ascension of ascending node: 41.7794°
argument of perigee: 107.7777°
revolutions per day: 13.74241776
mean anomaly at epoch: 305.5993°
orbit number at epoch: 35793

The dashed part of the orbit path shows where the satellite is in the earth's shadow,  

DLR